St. Cloud, MN

1:51 PM CST on December 16, 2017 (GMT -0600)
Saint Cloud Regional

Weather History for KSTC - December, 2011

Change the Weather History Date:

Friday, December 2, 2011

  Actual Average Record
Temperature  
Mean Temperature 21 °F 21 °F  
Max Temperature 32 °F 29 °F 60 °F (1982)
Min Temperature 9 °F 13 °F -27 °F (1940)
Degree Days  
Heating Degree Days 44 44  
Month to date heating degree days 88 88  
Since 1 July heating degree days 1687 2013  
Cooling Degree Days 0 0  
Month to date cooling degree days 0 0  
Year to date cooling degree days 634 465  
Moisture  
Dew Point 11 °F    
Average Humidity 61    
Maximum Humidity 83    
Minimum Humidity 39    
Precipitation  
Precipitation 0.00 in 0.03 in 0.45 in (1909)
Month to date precipitation T 0.06  
Year to date precipitation 27.67 26.97  
Snow  
Snow 0.00 in 0.30 in 4.00 in (1928)
Month to date snowfall T 0.6  
Since 1 July snowfall 3.9 9.8  
Snow Depth 0.00 in    
Sea Level Pressure  
Sea Level Pressure 30.24 in    
Wind  
Wind Speed 13 mph (South)    
Max Wind Speed 24 mph    
Max Gust Speed 31 mph    
Visibility 10 miles    
Events      
T = Trace of Precipitation, MM = Missing Value Source: NWS Daily Summary

Daily Weather History Graph

Daily Weather History Graph

Search for Another Location

Airport or City:

Trip Planner

Search our weather history database for the weather conditions in past years. The results will help you decide how hot, cold, wet, or windy it might be!

Date:

Astronomy

Dec. 02, 2011 Rise Set
Actual Time 7:36 AM CST 4:33 PM CST
Civil Twilight 7:03 AM CST 5:07 PM CST
Nautical Twilight 6:26 AM CST 5:44 PM CST
Astronomical Twilight 5:50 AM CST 6:20 PM CST
Moon 12:31 PM CST (12/2) No Moon Set
Length of Visible Light 10h 04m
Length of Day
8h 57m
First Quarter, 53% of the Moon is Illuminated
Dec 2
First Quarter
Dec 10
Full
Dec 17
Last Quarter
Dec 24
New
Jan 1
First Quarter

Hourly Weather History & Observations

Time (CST) Temp. Windchill Dew Point Humidity Pressure Visibility Wind Dir Wind Speed Gust Speed Precip Events Conditions
12:53 AM 9.0 °F -2.2 °F 3.9 °F 80% 30.46 in 10.0 mi SSW 6.9 mph - N/A   Clear
1:53 AM 9.0 °F 0.6 °F 5.0 °F 84% 30.44 in 10.0 mi South 4.6 mph - N/A   Clear
2:53 AM 9.0 °F -0.9 °F 5.0 °F 84% 30.43 in 10.0 mi SSE 5.8 mph - N/A   Clear
3:53 AM 9.0 °F -0.9 °F 5.0 °F 84% 30.41 in 10.0 mi SSE 5.8 mph - N/A   Clear
4:53 AM 12.9 °F 1.6 °F 7.0 °F 77% 30.39 in 10.0 mi South 8.1 mph - N/A   Clear
5:53 AM 10.0 °F 0.4 °F 6.1 °F 84% 30.38 in 10.0 mi SSE 5.8 mph - N/A   Clear
6:53 AM 12.0 °F 1.5 °F 7.0 °F 80% 30.36 in 10.0 mi SSE 6.9 mph - N/A   Clear
7:53 AM 14.0 °F 1.2 °F 8.1 °F 77% 30.34 in 10.0 mi South 10.4 mph - N/A   Clear
8:53 AM 17.1 °F 5.0 °F 10.9 °F 77% 30.33 in 10.0 mi South 10.4 mph - N/A   Clear
9:53 AM 21.9 °F 8.2 °F 12.9 °F 68% 30.31 in 10.0 mi South 16.1 mph 20.7 mph N/A   Clear
10:53 AM 25.0 °F 10.6 °F 14.0 °F 63% 30.29 in 10.0 mi South 20.7 mph 26.5 mph N/A   Clear
11:53 AM 28.0 °F 15.7 °F 12.9 °F 53% 30.26 in 10.0 mi South 17.3 mph 24.2 mph N/A   Clear
12:53 PM 30.9 °F 20.2 °F 10.0 °F 42% 30.22 in 10.0 mi South 15.0 mph 26.5 mph N/A   Clear
1:53 PM 32.0 °F 20.1 °F 10.0 °F 40% 30.19 in 10.0 mi South 19.6 mph 27.6 mph N/A   Clear
2:53 PM 32.0 °F 19.2 °F 12.0 °F 44% 30.15 in 10.0 mi South 23.0 mph 31.1 mph N/A   Clear
3:53 PM 30.9 °F 20.2 °F 10.9 °F 43% 30.14 in 10.0 mi SSE 15.0 mph 28.8 mph N/A   Clear
4:53 PM 28.9 °F 18.6 °F 10.9 °F 47% 30.12 in 10.0 mi SSE 12.7 mph - N/A   Clear
5:53 PM 30.0 °F 19.1 °F 10.9 °F 45% 30.11 in 10.0 mi SSE 15.0 mph - N/A   Clear
6:53 PM 30.0 °F 19.5 °F 12.9 °F 49% 30.09 in 10.0 mi SSE 13.8 mph 23.0 mph N/A   Clear
7:53 PM 30.0 °F 18.7 °F 14.0 °F 51% 30.09 in 10.0 mi South 16.1 mph - N/A   Partly Cloudy
8:53 PM 32.0 °F 20.8 °F 15.1 °F 50% 30.08 in 10.0 mi South 17.3 mph 27.6 mph N/A   Overcast
9:53 PM 32.0 °F 20.8 °F 17.1 °F 54% 30.08 in 10.0 mi South 17.3 mph - N/A   Overcast
10:53 PM 32.0 °F 20.8 °F 19.9 °F 61% 30.06 in 10.0 mi South 17.3 mph 21.9 mph N/A   Overcast
11:53 PM 30.9 °F 20.7 °F 21.0 °F 67% 30.05 in 10.0 mi South 13.8 mph - N/A   Overcast